This demonstration page uses our WeatherBlox Daily Observations layout. Learn more.

Left ArrowRight Arrow

Hourly Observations for October 27, 2021

Temp ( °F °C ) Dew Point ( °F °C ) Humidity (%) Winds ( mph kmh ) Pressure ( in mb ) Visibility ( mi km ) Precip ( " mm )
12:15 am 00:15 Cloudy 55 12.7 51 10.6 87 87 WNW 18 30 29.53 1000 10 16 N/A
12:35 am 00:35 Mostly Cloudy 52 11.2 49 9.3 88 88 NW 17 28 29.52 1000 10 16 N/A
12:55 am 00:55 Mostly Cloudy 52 11 49 9.2 89 89 NNW 15 24 29.55 1001 10 16 N/A
1:15 am 01:15 Cloudy 51 10.6 48 8.7 88 88 NNW 17 28 29.56 1001 10 16 N/A
1:35 am 01:35 Cloudy 50 10.1 47 8.2 88 88 NNW 20 31 29.55 1001 10 16 N/A
1:55 am 01:55 Cloudy 50 9.8 46 7.8 87 87 NNW 16 26 29.57 1001 10 16 N/A
2:15 am 02:15 Cloudy 49 9.7 46 7.6 87 87 NNW 16 26 29.57 1001 10 16 N/A
2:35 am 02:35 Cloudy 49 9.2 45 7 86 86 NNW 20 31 29.57 1001 10 16 N/A
2:55 am 02:55 Cloudy 48 9.1 45 7 87 87 NNW 22 35 29.58 1002 10 16 N/A
3:15 am 03:15 Cloudy 47 8.5 44 6.5 87 87 NNW 24 39 29.60 1003 10 16 N/A
3:35 am 03:35 Cloudy 47 8.1 43 6.1 87 87 NNW 25 41 29.62 1003 10 16 N/A
3:55 am 03:55 Cloudy 46 8 43 6 87 87 NNW 23 37 29.62 1003 10 16 N/A
4:15 am 04:15 Cloudy 46 7.9 42 5.6 86 86 NNW 22 35 29.66 1004 10 16 N/A
4:35 am 04:35 Cloudy 46 7.5 41 5.2 86 86 NNW 21 33 29.66 1005 10 16 N/A
4:55 am 04:55 Cloudy 45 7.3 41 5 85 85 NNW 20 31 29.66 1004 10 16 N/A
5:15 am 05:15 Cloudy 45 7.1 41 5 87 87 NNW 21 33 29.67 1005 7 11 N/A
5:35 am 05:35 Cloudy with Light Rain 44 6.8 42 5.3 90 90 NNW 20 31 29.68 1005 4 6 N/A
5:55 am 05:55 Cloudy 45 7 41 5.1 88 88 NNW 22 35 29.67 1005 10 16 N/A
6:15 am 06:15 Cloudy 45 7 41 5 87 87 NW 20 31 29.69 1005 10 16 N/A
6:35 am 06:35 Cloudy 44 6.8 41 4.8 87 87 NW 25 41 29.69 1005 10 16 N/A
6:55 am 06:55 Cloudy with Light Rain 44 6.7 41 5 89 89 NW 22 35 29.70 1006 10 16 N/A
7:15 am 07:15 Cloudy with Drizzle 44 6.8 41 5.1 89 89 NW 26 43 29.71 1006 10 16 N/A
7:35 am 07:35 Cloudy with Drizzle 44 6.9 41 5.1 88 88 NW 22 35 29.72 1006 10 16 N/A
7:55 am 07:55 Cloudy with Light Rain 45 7 41 5.2 88 88 NNW 26 43 29.71 1006 10 16 N/A
8:15 am 08:15 Cloudy with Light Rain 45 7 41 5.2 88 88 NNW 21 33 29.73 1007 10 16 0.01 0.25
8:35 am 08:35 Cloudy with Light Rain 45 7 41 5.1 88 88 NNW 23 37 29.73 1007 10 16 0.01 0.25
8:55 am 08:55 Cloudy 45 7.2 41 5.1 87 87 NNW 24 39 29.74 1007 10 16 0.01 0.25
9:15 am 09:15 Cloudy 45 7.2 41 5.1 87 87 NW 23 37 29.74 1007 10 16 N/A
9:35 am 09:35 Cloudy 45 7.4 41 5 85 85 NNW 21 33 29.76 1008 10 16 N/A
9:55 am 09:55 Cloudy 46 7.8 41 5.1 83 83 NNW 26 43 29.74 1007 10 16 N/A
10:15 am 10:15 Mostly Cloudy 47 8.5 42 5.5 82 82 NNW 24 39 29.71 1006 10 16 N/A
10:35 am 10:35 Partly Cloudy 49 9.5 42 5.8 78 78 NNW 28 44 29.72 1006 10 16 N/A
10:55 am 10:55 Mostly Cloudy 48 9.1 41 5.1 76 76 N 25 41 29.73 1007 10 16 N/A
11:15 am 11:15 Cloudy 49 9.3 40 4.7 73 73 N 21 33 29.74 1007 10 16 N/A
11:35 am 11:35 Cloudy 49 9.6 41 5 73 73 N 24 39 29.71 1006 10 16 N/A
11:55 am 11:55 Cloudy 50 9.8 41 4.9 72 72 N 30 48 29.71 1006 10 16 N/A
12:15 pm 12:15 Partly Cloudy 50 10.1 41 5 71 71 N 23 37 29.72 1006 10 16 N/A
12:35 pm 12:35 Sunny 51 10.6 41 5.2 70 70 N 22 35 29.74 1007 10 16 N/A
12:55 pm 12:55 Partly Cloudy 51 10.6 40 4.7 67 67 N 23 37 29.75 1007 10 16 N/A
1:15 pm 13:15 Partly Cloudy 52 11 40 4.7 65 65 NNW 24 39 29.72 1007 10 16 N/A
1:35 pm 13:35 Sunny 52 11.2 41 4.9 65 65 NNW 23 37 29.72 1006 10 16 N/A
1:55 pm 13:55 Sunny 53 11.6 40 4.6 62 62 N 28 44 29.72 1006 10 16 N/A
2:15 pm 14:15 Sunny 54 12 39 4.1 59 59 N 29 46 29.71 1006 10 16 N/A
2:35 pm 14:35 Sunny 54 12.2 40 4.4 59 59 N 28 44 29.69 1005 10 16 N/A
2:55 pm 14:55 Sunny 55 12.6 40 4.6 58 58 N 24 39 29.70 1006 10 16 N/A
3:15 pm 15:15 Sunny 55 12.5 40 4.3 58 58 N 21 33 29.69 1005 10 16 N/A
3:35 pm 15:35 Sunny 55 12.8 39 3.9 55 55 N 22 35 29.69 1005 10 16 N/A
3:55 pm 15:55 Sunny 56 13.3 39 4.1 54 54 N 23 37 29.68 1005 10 16 N/A
4:15 pm 16:15 Sunny 56 13.3 39 4 54 54 N 20 31 29.69 1005 10 16 N/A
4:35 pm 16:35 Sunny 56 13.3 39 4.1 54 54 N 21 33 29.69 1005 10 16 N/A
4:55 pm 16:55 Sunny 56 13.1 39 3.8 54 54 N 16 26 29.69 1006 10 16 N/A
5:15 pm 17:15 Sunny 56 13.6 38 3.5 51 51 N 21 33 29.70 1006 10 16 N/A
5:35 pm 17:35 Sunny 57 13.7 38 3.3 50 50 N 17 28 29.71 1006 10 16 N/A
5:55 pm 17:55 Sunny 56 13.4 37 2.8 49 49 N 16 26 29.72 1006 10 16 N/A
6:15 pm 18:15 Sunny 55 13 37 3 51 51 N 14 22 29.73 1007 10 16 N/A
6:35 pm 18:35 Sunny 54 12.1 37 3 54 54 N 10 17 29.74 1007 10 16 N/A
6:55 pm 18:55 Clear 52 10.9 37 2.8 58 58 N 10 17 29.77 1008 10 16 N/A
7:15 pm 19:15 Clear 51 10.5 35 1.8 55 55 N 10 17 29.79 1009 10 16 N/A
7:35 pm 19:35 Clear 50 10 34 1.1 54 54 NNW 9 15 29.79 1009 10 16 N/A
7:55 pm 19:55 Clear 48 8.7 34 1 59 59 NNW 9 15 29.80 1009 10 16 N/A
8:15 pm 20:15 Clear 44 6.8 33 0.6 65 65 NNW 8 13 29.83 1010 10 16 N/A
8:35 pm 20:35 Clear 43 6 33 0.5 68 68 NW 12 19 29.85 1011 10 16 N/A
8:55 pm 20:55 Clear 43 6.3 33 0.5 67 67 NW 10 17 29.85 1011 10 16 N/A
9:15 pm 21:15 Clear 43 6.3 33 0.5 67 67 NW 10 17 29.85 1011 10 16 N/A
9:35 pm 21:35 Clear 41 5.2 32 0.2 70 70 NW 9 15 29.86 1011 10 16 N/A
9:55 pm 21:55 Clear 43 5.9 33 0.4 68 68 NW 10 17 29.86 1011 10 16 N/A
10:15 pm 22:15 Clear 42 5.3 33 0.3 70 70 NW 10 17 29.88 1012 10 16 N/A
10:35 pm 22:35 Clear 40 4.5 33 0.3 74 74 NW 9 15 29.89 1012 10 16 N/A
10:55 pm 22:55 Clear 40 4.4 33 0.4 76 76 NW 8 13 29.89 1012 10 16 N/A
11:15 pm 23:15 Clear 39 4 33 0.4 78 78 NW 8 13 29.90 1012 10 16 N/A
11:35 pm 23:35 Clear 38 3.1 32 undefined 80 80 NW 10 17 29.91 1013 10 16 N/A
11:55 pm 23:55 Clear 36 2 32 -0.1 86 86 NW 8 13 29.92 1013 10 16 N/A

Powered by AerisWeather